Hayward, CA

1:39 AM PDT on April 28, 2017 (GMT -0700)
Hayward Executive

Weather History for KHWD - February, 2014

Change the Weather History Date:

Thursday, February 27, 2014

  Actual Average Record
Temperature  
Mean Temperature 59 °F 54 °F  
Max Temperature 65 °F 62 °F 77 °F (2002)
Min Temperature 52 °F 47 °F 33 °F (2011)
Degree Days  
Heating Degree Days 6    
Month to date heating degree days 309  
Since 1 July heating degree days 1512  
Cooling Degree Days 0    
Month to date cooling degree days 0  
Year to date cooling degree days 0  
Growing Degree Days 8 (Base 50)    
Moisture  
Dew Point 49 °F    
Average Humidity 71    
Maximum Humidity 89    
Minimum Humidity 52    
Precipitation  
Precipitation 0.01 in - 0.57 in (2005)
Month to date precipitation 1.58  
Year to date precipitation 1.58  
Since 1 July precipitation 2.78  
Sea Level Pressure  
Sea Level Pressure 29.83 in    
Wind  
Wind Speed 8 mph (SSE)    
Max Wind Speed 20 mph    
Max Gust Speed 25 mph    
Visibility 10 miles    
Events Rain    
T = Trace of Precipitation, MM = Missing Value Source: NWS Daily Summary

Daily Weather History Graph

Daily Weather History Graph

Search for Another Location

Airport or City:

Trip Planner

Search our weather history database for the weather conditions in past years. The results will help you decide how hot, cold, wet, or windy it might be!

Date:

Astronomy

Feb. 27, 2014 Rise Set
Actual Time 6:42 AM PST 6:00 PM PST
Civil Twilight 6:16 AM PST 6:26 PM PST
Nautical Twilight 5:45 AM PST 6:57 PM PST
Astronomical Twilight 5:15 AM PST 7:27 PM PST
Moon 5:17 AM PST (2/27) 4:33 PM PST (2/27)
Length of Visible Light 12h 10m
Length of Day
11h 17m
Waning Crescent, 3% of the Moon is Illuminated
Feb 27
Waning Crescent
Mar 1
New
Mar 8
First Quarter
Mar 16
Full
Mar 23
Last Quarter

Hourly Weather History & Observations

Time (PST) Temp. Dew Point Humidity Pressure Visibility Wind Dir Wind Speed Gust Speed Precip Events Conditions
12:54 AM 55.9 °F 50.0 °F 80% 29.82 in 10.0 mi WSW 8.1 mph 17.3 mph N/A   Partly Cloudy
1:35 AM 55.4 °F 51.8 °F 88% 29.81 in 10.0 mi SW 3.5 mph - N/A   Mostly Cloudy
1:54 AM 55.9 °F 51.1 °F 84% 29.84 in 10.0 mi SW 9.2 mph - N/A   Overcast
2:54 AM 55.0 °F 50.0 °F 83% 29.84 in 10.0 mi SW 6.9 mph - N/A   Overcast
3:54 AM 55.0 °F 50.0 °F 83% 29.86 in 10.0 mi WSW 8.1 mph - 0.00 in   Partly Cloudy
4:54 AM 54.0 °F 48.9 °F 83% 29.87 in 10.0 mi South 6.9 mph - N/A   Mostly Cloudy
5:01 AM 53.6 °F 48.2 °F 82% 29.84 in 10.0 mi SSE 3.5 mph - N/A   Mostly Cloudy
5:45 AM 53.6 °F 48.2 °F 82% 29.85 in 10.0 mi SSE 6.9 mph - N/A   Mostly Cloudy
5:54 AM 53.1 °F 50.0 °F 89% 29.88 in 10.0 mi SSE 8.1 mph - N/A   Overcast
6:38 AM 53.6 °F 50.0 °F 88% 29.85 in 10.0 mi SSE 5.8 mph - N/A   Overcast
6:47 AM 53.6 °F 50.0 °F 88% 29.86 in 10.0 mi SW 15.0 mph 21.9 mph N/A   Overcast
6:54 AM 53.1 °F 50.0 °F 89% 29.89 in 9.0 mi SW 15.0 mph 23.0 mph 0.00 in Rain Light Rain
7:31 AM 53.6 °F 50.0 °F 88% 29.88 in 4.0 mi South 11.5 mph - 0.01 in Rain Light Rain
7:40 AM 53.6 °F 50.0 °F 88% 29.88 in 10.0 mi South 9.2 mph - 0.01 in   Overcast
7:51 AM 53.6 °F 51.8 °F 94% 29.88 in 10.0 mi South 9.2 mph - 0.01 in   Overcast
7:54 AM 53.1 °F 51.1 °F 93% 29.91 in 10.0 mi South 9.2 mph - 0.01 in   Overcast
8:06 AM 53.6 °F 51.8 °F 94% 29.87 in 10.0 mi SE 8.1 mph - N/A   Mostly Cloudy
8:32 AM 53.6 °F 51.8 °F 94% 29.89 in 10.0 mi South 8.1 mph - N/A   Mostly Cloudy
8:54 AM 54.0 °F 51.1 °F 90% 29.93 in 6.0 mi South 9.2 mph - 0.00 in Rain Light Rain
9:04 AM 53.6 °F 51.8 °F 94% 29.90 in 10.0 mi South 5.8 mph - 0.00 in   Overcast
9:54 AM 55.9 °F 53.1 °F 90% 29.94 in 10.0 mi SW 5.8 mph - 0.00 in   Mostly Cloudy
10:54 AM 57.9 °F 51.1 °F 78% 29.92 in 10.0 mi South 6.9 mph - N/A   Partly Cloudy
11:54 AM 60.1 °F 48.0 °F 64% 29.93 in 10.0 mi South 8.1 mph - N/A   Overcast
12:54 PM 64.0 °F 50.0 °F 60% 29.91 in 10.0 mi SSE 9.2 mph - N/A   Mostly Cloudy
1:54 PM 63.0 °F 46.9 °F 56% 29.89 in 10.0 mi South 12.7 mph - N/A   Mostly Cloudy
2:54 PM 64.0 °F 46.0 °F 52% 29.88 in 10.0 mi South 15.0 mph 23.0 mph N/A   Mostly Cloudy
3:54 PM 63.0 °F 46.0 °F 54% 29.85 in 10.0 mi SSE 6.9 mph - N/A   Clear
4:54 PM 63.0 °F 46.0 °F 54% 29.79 in 10.0 mi ENE 5.8 mph - N/A   Clear
5:54 PM 62.1 °F 46.9 °F 58% 29.73 in 10.0 mi ENE 6.9 mph - N/A   Clear
6:54 PM 61.0 °F 46.9 °F 60% 29.71 in 10.0 mi East 6.9 mph - N/A   Clear
7:54 PM 60.1 °F 45.0 °F 57% 29.69 in 10.0 mi East 4.6 mph - N/A   Clear
8:54 PM 57.9 °F 46.0 °F 65% 29.65 in 10.0 mi East 3.5 mph - N/A   Clear
9:54 PM 57.9 °F 46.0 °F 65% 29.62 in 10.0 mi ENE 5.8 mph - N/A   Mostly Cloudy
10:54 PM 57.9 °F 44.1 °F 60% 29.59 in 10.0 mi ENE 5.8 mph - N/A   Clear
11:54 PM 59.0 °F 43.0 °F 55% 29.54 in 10.0 mi ENE 4.6 mph - N/A   Overcast